Pour une meilleure expérience, merci d'orienter votre écran en mode paysage.

rotate

Club de Triathlon : C.R.V. LYON TRIATHLON

Le club de Triathlon C.R.V. LYON TRIATHLON se situe dans la ville de LYON (69 - Rhône). Le club est affilié à la ligue régionale AUVERGNE RHONE ALPES de la FFTRI - Fédération Française de Triathlon. Retrouvez ici toute l'activité du club de Triathlon C.R.V. LYON TRIATHLON - Résultats, podiums, objectifs, effectifs....

Site internet : https://www.crv-lyon-triathlon.fr

Page Facebook : https://www.facebook.com/CRVLyonTri

Résultats de la saison en cours

CltClt FDateEpreuveNomIPRNbTempsGAClt/GAIP
34 19/09/2021VentouxMan (84) - Triathlon L Antoine JUILLION03296h39'43''MS1292Sa course
98 19/09/2021VentouxMan (84) - Triathlon L Dimitri BIZJAN03297h19'00''MS21969Sa course
47 19/09/2021VentouxMan (84) - Triathlon L Alban VINCENT03296h48'14''MS31287Sa course
2 19/09/2021Duathlon de Brides les Bains (73) - M Nathan SANHUEZA89112h31'45''MSE1101Sa course
104 19/09/2021VentouxMan (84) - Triathlon L Antoine LAROCHE03297h20'58''MS32467Sa course
109 18/09/2021One2Tri - Lac d'Aiguebelette (73) - Triathlon L Amaury LAITHIER411357h01'16''MS2916Sa course
5 18/09/2021One2Tri - Lac d'Aiguebelette (73) - Triathlon M Sébastien MESSIANT1353121h52'37''MS22180Sa course
80 18/09/2021One2Tri - Lac d'Aiguebelette (73) - Triathlon L Adrien PONS01356h21'24''MV11439Sa course
174 18/09/2021One2Tri - Lac d'Aiguebelette (73) - Triathlon M Herve FERON03122h32'34''MV22144Sa course
2293918/09/2021One2Tri - Lac d'Aiguebelette (73) - Triathlon M Ingrid FERON03122h43'33''FV2326Sa course
33 12/09/2021Triathlon d'Aix les Bains (73) - M Valentin BARON1045402h04'59''MS21197Sa course
227 12/09/2021Triathlon d'Aix les Bains (73) - M Frédéric MATHIAN05402h28'41''MV23058Sa course
4868612/09/2021Triathlon d'Aix les Bains (73) - M Malvina RICHER05403h03'20''FS3159Sa course
206 12/09/2021Triathlon d'Aix les Bains (73) - M Werner VERINGMEIER425402h26'49''MV31662Sa course
195 12/09/2021Triathlon d'Aix les Bains (73) - M Stephane BARREAU445402h26'02''MV4164Sa course
4265812/09/2021Triathlon d'Aix les Bains (73) - M Celine COLOT05402h51'15''FS31021Sa course
701 12/09/2021Half IronMan 70.3 de Nice (06) - Triathlon L Bastien GOHL5416476h03'36''M35-399257Sa course
3404112/09/2021Triathlon d'Aix les Bains (73) - M Sophie VEROLLET05402h38'13''FS3737Sa course
10 12/09/2021Triathlon d'Aix les Bains (73) - M Sébastien MESSIANT1355401h58'30''MS23122Sa course
4607312/09/2021Triathlon d'Aix les Bains (73) - M Laurence BAYARD05402h57'09''FV3514Sa course
71 12/09/2021IronMan de Nice (06) - Triathlon XXL Samuel GULLY8393210h32'24''M45595Sa course
455 12/09/2021Triathlon d'Aix les Bains (73) - M Hugues GIRARD05402h55'52''MV41915Sa course
54 12/09/2021Triathlon d'Aix les Bains (73) - M François RAUT905402h10'11''MS4792Sa course
74 28/08/2021Triathlon de Veigné (37) - M Stephane BARREAU441622h47'36''MV4455Sa course
63 28/08/2021VercorsMan (26) - S Florian COURBON02861h28'17''MS2679Sa course
11 28/08/2021Triathlon de Morzine Montriond (74) - M Nathan SANHUEZA891082h31'49''MSE1095Sa course
3471822/08/2021IronMan de Vichy (03) - Triathlon XXL Helen SCHULTER0107511h55'08''F40368Sa course
114 22/08/2021IronMan de Vichy (03) - Triathlon XXL Samuel GULLY83107510h29'24''M451391Sa course
624 22/08/2021IronMan de Vichy (03) - Triathlon XXL Lionel MARECHAL0107512h58'52''M505742Sa course
1064 22/08/2021IronMan de Vichy (03) - Triathlon XXL Jean-pierre MASTNAK0107516h25'26''M7011Sa course
217 21/08/2021Triathlon de la Madeleine (73) - M Alban VINCENT02765h01'29''S3M3722Sa course
285 21/08/2021IronMan 70.3 de Vichy (03) - Triathlon L Jocelyn BRIARD011325h15'28''M182675Sa course
27 21/08/2021Triathlon de la Madeleine (73) - S Arturo BOLUFER01301h51'03''S3M682Sa course
86 21/08/2021Triathlon de la Madeleine (73) - M Adrien PEREZ02764h05'36''S2M1670Sa course
11 21/08/2021Triathlon de la Madeleine (73) - S Nathan SANHUEZA891301h43'10''S2M397Sa course
21 15/08/2021Triathlon de Lamastre (07) - S Nathan SANHUEZA891631h23'33''MS2890Sa course
11 25/07/2021Duathlon de Seyssel (74) - S Nathan SANHUEZA89411h13'11''MSE978Sa course
10 25/07/2021Duathlon de Seyssel (74) - L Dario VICENTE LOPEZ0253h51'09''MSE962Sa course
36 11/07/2021PowerMan d'Embrun (05) - Duathlon L Nathan SANHUEZA891833h41'17''MS2583Sa course
6 08/07/2021Triathlon des Gorges de l'Ardèche (07) - M Antoine VIAL05441h38'41''MSE5190Sa course
149 08/07/2021Triathlon des Gorges de l'Ardèche (07) - M Florian COURBON05442h01'16''MSE8373Sa course
104 04/07/2021Ch'TriMan 226 Gravelines (59) - Triathlon XXL Valentin DOGUET028911h34'17''MSE5660Sa course
497 04/07/2021Ch'TriMan 113 Gravelines (59) - Triathlon L Mory SEYE08795h48'48''MVE19940Sa course
6947904/07/2021Ch'TriMan 113 Gravelines (59) - Triathlon L Celine COLOT08796h22'28''FSE4516Sa course
526 04/07/2021Ch'TriMan 113 Gravelines (59) - Triathlon L Herve TREMOUILLES08795h53'08''MVE20536Sa course
304 04/07/2021Ch'TriMan 113 Gravelines (59) - Triathlon L Amaury LAITHIER418795h23'59''MSE18063Sa course
DNF 04/07/2021Ch'TriMan 113 Gravelines (59) - Triathlon L Baptiste COURT0879MSE Sa course
165 04/07/2021Ch'TriMan 113 Gravelines (59) - Triathlon L Lionel MARECHAL08795h04'19''MVE5281Sa course
82 04/07/2021Ch'TriMan 111 Gravelines (59) - Duathlon L Guillaume LIOTE01045h36'54''MVE3417Sa course
7338904/07/2021Ch'TriMan 113 Gravelines (59) - Triathlon L Laurence BAYARD08796h32'16''FVE3911Sa course
413 04/07/2021Ch'TriMan 113 Gravelines (59) - Triathlon L Antoine LAROCHE08795h38'59''MSE22450Sa course
496 04/07/2021Ch'TriMan 113 Gravelines (59) - Triathlon L Franck LYONNET08795h48'47''MVE19840Sa course
802 04/07/2021Ch'TriMan 113 Gravelines (59) - Triathlon L Jean-pierre MASTNAK08797h13'40''MVE3252Sa course
94 04/07/2021Ch'TriMan 113 Gravelines (59) - Triathlon L François RAUT908794h49'56''MSE6690Sa course
97 04/07/2021Ch'TriMan 226 Gravelines (59) - Triathlon XXL Stephane BARREAU4428911h29'11''MVE3863Sa course
567 04/07/2021Ch'TriMan 113 Gravelines (59) - Triathlon L Stephane NORDE08795h59'44''MVE22431Sa course
254 04/07/2021Ch'TriMan 226 Gravelines (59) - Triathlon XXL Lorène REYMOND028914h47'36''FVE71Sa course
161 04/07/2021Ch'TriMan 113 Gravelines (59) - Triathlon L Antoine JUILLION08795h03'15''MSE10581Sa course
219904/07/2021Ch'TriMan 113 Gravelines (59) - Triathlon L Helen SCHULTER08795h13'11''FVE374Sa course
35 04/07/2021Ch'TriMan 113 Gravelines (59) - Triathlon L Valentin BARON1048794h29'49''MSE28100Sa course
414 04/07/2021Ch'TriMan 113 Gravelines (59) - Triathlon L Frédéric MATHIAN08795h39'00''MVE15550Sa course
134 04/07/2021Ch'TriMan 113 Gravelines (59) - Triathlon L Dimitri BIZJAN08794h57'56''MSE8985Sa course
80704/07/2021Ch'TriMan 111 Gravelines (59) - Duathlon L Malvina RICHER01045h32'53''FSE419Sa course
3147803/07/2021Triathlon d'Embrun (05) - M Emmanuelle BILLEREY03943h41'28''FV1718Sa course
83626/06/2021Triathlon d'Aydat (63) - M Alice GORRY02562h46'21''FS2367Sa course
148 26/06/2021Triathlon d'Aydat (63) - M Bastien GOHL542563h02'24''MS42540Sa course
3704006/06/2021TriGames - Cagnes-Sur-Mer (06) - L Alice GORRY05145h56'22''FS21028Sa course
145 06/06/2021TriGames - Cagnes-Sur-Mer (06) - M Bastien GOHL544183h10'36''MS42266Sa course
354 06/06/2021TriGames - Cagnes-Sur-Mer (06) - L Stephane BARREAU445145h52'29''MV41831Sa course
205 06/06/2021TriGames - Cagnes-Sur-Mer (06) - L Samuel GULLY835145h19'51''MV22360Sa course
Pas de résultats pour ce club

Résultats des TRI-CUP de la saison

Résultats du tri-cup-l

AnnéeCltClt/F TCNomIPRGAClt/GA
202164246 Samuel GULLY83MV24

Résultats des TRI-CUP des saisons passées

Résultats du TRI-CUP LD

TRI-CUPAnnéeCltClt/F TCNomIPRGAClt/GA
TRI-CUP LD2019115320 Valentin BARON104MS231
TRI-CUP LD2019192288 Alexandre PATRIN0MS249
TRI-CUP LD2019758112 Stephane BARREAU44MV383
TRI-CUP LD201980496 Werner VERINGMEIER42MV388
TRI-CUP LD201866452 Valentin BARON104MS213
TRI-CUP LD2018217288 Rémi BOURNAND98MS349
TRI-CUP LD2018226285 Benoit PARET0MS433
TRI-CUP LD2018234284 Ronan COUDERT0MS352
TRI-CUP LD2018478224 Pascal GOUTTERATEL0MV259
TRI-CUP LD2018591197 Clément VISSEYRIAS0MS495
TRI-CUP LD2018628185 Stephane BARREAU44MV348
TRI-CUP LD2018692170 Eric LEVISTRE0MV357
TRI-CUP LD201893189 Alain MOLLARD0MV397
TRI-CUP LD2018101346 Herve TREMOUILLES0MV2182
TRI-CUP LD2018104118 Jean-pierre MASTNAK0MV65

Résultats du TRI-CUP M

TRI-CUPAnnéeCltClt/F TCNomIPRGAClt/GA
TRI-CUP M2019137338 Jeremy DE MERBITZ0MS330
TRI-CUP M2019143332 Valentin BARON104MS233
TRI-CUP M2019243286 Louis THIEBAULT0MS341
TRI-CUP M2019253283 Nicolas RIFFARD0MS134
TRI-CUP M2019107776127 Manon GABRIEL0FS317
TRI-CUP M20191097122 Herve TREMOUILLES0MV2177
TRI-CUP M2019117199102 Constance LEVIEUX0FS111
TRI-CUP M2019120910687 Mory SEYE0MV3114
TRI-CUP M2019131914039 Sophie VEROLLET0FS235
TRI-CUP M2018173291 Rémi BOURNAND98MS334
TRI-CUP M2018189287 Benoit PARET0MS426
TRI-CUP M2018513205 Guillaume FAUSSURIER0MS278
TRI-CUP M201881048127 Katarzyna PARET0FV19
TRI-CUP M2018101810029 Celine COLOT0FS320

Podiums du club

IDClt/GAGADateEpreuveNomIPRClt FCltNbTempsIP
7668681MSE19/09/2021Duathlon de Brides les Bains (73) - MNathan SANHUEZA892112h31'45''101RésultatsSa course
7623532MS119/09/2021VentouxMan (84) - Triathlon LAntoine JUILLION0343296h39'43''92RésultatsSa course
7615943FV218/09/2021One2Tri - Lac d'Aiguebelette (73) - Triathlon MIngrid FERON0392293122h43'33''26RésultatsSa course
7613702MS218/09/2021One2Tri - Lac d'Aiguebelette (73) - Triathlon MSébastien MESSIANT13553121h52'37''180RésultatsSa course
7671151MV412/09/2021Triathlon d'Aix les Bains (73) - MStephane BARREAU441955402h26'02''64RésultatsSa course
7669303MS212/09/2021Triathlon d'Aix les Bains (73) - MSébastien MESSIANT135105401h58'30''122RésultatsSa course
7265693F4022/08/2021IronMan de Vichy (03) - Triathlon XXLHelen SCHULTER018347107511h55'08''68RésultatsSa course
7272861M7022/08/2021IronMan de Vichy (03) - Triathlon XXLJean-pierre MASTNAK01064107516h25'26''1RésultatsSa course
7281363S2M21/08/2021Triathlon de la Madeleine (73) - SNathan SANHUEZA89111301h43'10''97RésultatsSa course
7013283FVE04/07/2021Ch'TriMan 113 Gravelines (59) - Triathlon LHelen SCHULTER092198795h13'11''74RésultatsSa course
6923833FS226/06/2021Triathlon d'Aydat (63) - MAlice GORRY06832562h46'21''67RésultatsSa course
6558101MS204/10/2020NatureMan VAR (83) - Triathlon MAntoine VIAL034592h31'27''278RésultatsSa course
6409783MS119/09/2020One2Tri - Lac d'Aiguebelette (73) - Triathlon LNathan SANHUEZA89241985h03'12''91RésultatsSa course
6413702FV219/09/2020One2Tri - Lac d'Aiguebelette (73) - Triathlon MIngrid FERON0462182772h37'20''21RésultatsSa course
6410691FS319/09/2020One2Tri - Lac d'Aiguebelette (73) - Triathlon LAudrey ELGOYHEN061151986h01'17''41RésultatsSa course
7305331MM306/09/2020O'Xyrace (01) - Cross Triathlon SStephane NORDE0841011h33'38''18RésultatsSa course
6700113MS201/03/2020Duathlon de Brignoles (83) - SAntoine VIAL072181h19'07''133RésultatsSa course
4789293MS205/10/2019One2Tri - Lac d'Aiguebelette (73) - Triathlon LValentin BARON10481504h59'47''115RésultatsSa course
4353112MV625/08/2019IronMan de Vichy (03) - Triathlon XXLJean-pierre MASTNAK01116124015h00'58''10RésultatsSa course
4706603MS221/07/2019Triathlon de Marseille (13) - MAntoine VIAL066702h07'01''207RésultatsSa course
5273082FS314/07/2019Triathlon du Lac du Bouchet (43) - MManon GABRIEL0111061702h53'18''38RésultatsSa course
4235672FV306/07/2019Triathlon des Gorges de l'Ardèche (07) - L 4305355h36'25''16RésultatsSa course
5092392FV116/06/2019Triathlon du Lac des Sapins (69) - MHelen SCHULTER0102606983h14'47''63RésultatsSa course
5089993MS316/06/2019Triathlon du Lac des Sapins (69) - MJeremy DE MERBITZ0206982h41'17''103RésultatsSa course
4919133MV309/06/2019Triathlon de Roanne-Villerest (42) - Format MStephane BARREAU44531382h31'47''63RésultatsSa course
4919602FS309/06/2019Triathlon de Roanne-Villerest (42) - Format MManon GABRIEL071001382h50'19''28RésultatsSa course
4919822FV309/06/2019Triathlon de Roanne-Villerest (42) - Format M 1221383h07'32''11RésultatsSa course
4955001MS209/06/2019Triathlon de Vins-sur-Caramy (83) - MAntoine VIAL021342h08'08''188RésultatsSa course
4919582FS109/06/2019Triathlon de Roanne-Villerest (42) - Format MConstance LEVIEUX06981382h49'42''29RésultatsSa course
4919792FS209/06/2019Triathlon de Roanne-Villerest (42) - Format MSophie VEROLLET0131191383h05'35''13RésultatsSa course
4919951MV609/06/2019Triathlon de Roanne-Villerest (42) - Format MJean-pierre MASTNAK01351383h31'26''2RésultatsSa course
4017883MS202/06/2019Half Doussard (74) - Triathlon LAlexandre PATRIN0144564h21'47''104RésultatsSa course
4713291MS219/05/2019Triathlon de Rumilly (74) - Format MAlexandre PATRIN053502h03'33''187RésultatsSa course
3441262MS119/08/2018Triathlon du Jura Vouglans (39) - LAntoine VIAL052354h44'42''159RésultatsSa course
3353302MV602/08/2018Triathlon de l'Alpe d'Huez (38) - LJean-pierre MASTNAK071796011h05'11''5RésultatsSa course
5271092MS415/07/2018Triathlon du Lac du Bouchet (43) - MBenoit PARET0101032h11'42''96RésultatsSa course
5271591FV115/07/2018Triathlon du Lac du Bouchet (43) - MKatarzyna PARET07601032h43'14''42RésultatsSa course
3984301FV301/07/2018HalfTriMan (23) - Triathlon L 1782277h00'21''7RésultatsSa course
5106112FV117/06/2018Triathlon du Lac des Sapins (69) - MKatarzyna PARET0243196153h21'25''47RésultatsSa course
5266102FSE03/06/2018Triathlon du Beaujolais (69) - MAnne lise MANDRILLON483511682h42'09''71RésultatsSa course
3107052MS303/06/2018Half Doussard (74) - Triathlon LRonan COUDERT0224194h26'27''99RésultatsSa course
3084852MS402/06/2018Triathlon du Salagou (34) - LBenoit PARET0163064h34'22''100RésultatsSa course
3086331FV102/06/2018Triathlon du Salagou (34) - LKatarzyna PARET071643065h32'03''44RésultatsSa course
3087393FV302/06/2018Triathlon du Salagou (34) - L 2703066h36'41''7RésultatsSa course
3084721MS202/06/2018Triathlon du Salagou (34) - LValentin BARON10433064h16'38''230RésultatsSa course
3084972MS102/06/2018Triathlon du Salagou (34) - LPierre MAILLARD99283064h40'38''93RésultatsSa course
3087362MV602/06/2018Triathlon du Salagou (34) - LJean-pierre MASTNAK02673066h34'20''8RésultatsSa course
5061781FS427/05/2018Triathlon de Bourg en Bresse (01) - MAnne lise MANDRILLON4892194933h05'44''52RésultatsSa course
5063621FV327/05/2018Triathlon de Bourg en Bresse (01) - M 4034933h34'59''11RésultatsSa course
5061711MV427/05/2018Triathlon de Bourg en Bresse (01) - MLuc PIZA02124933h04'51''53RésultatsSa course
5062382FV127/05/2018Triathlon de Bourg en Bresse (01) - MKatarzyna PARET0182794933h12'59''38RésultatsSa course
5059761MS327/05/2018Triathlon de Bourg en Bresse (01) - MRémi BOURNAND98174932h30'13''102RésultatsSa course
3735012MS126/05/2018FrenchMan d'Hourtin (33) - Triathlon XXLAntoine REYNAUD955940510h32'48''86RésultatsSa course
2794833MV309/09/2017Evergreen Endurance 228 (74) - Triathlon XXLStephane BARREAU44475014h19'41''8RésultatsSa course
5591402MS426/08/2017Triathlon de la Madeleine (73) - MGuillaume AUROY0181573h47'18''91RésultatsSa course
147381MV606/08/2017AinTriMan (01) - Triathlon LJean-pierre MASTNAK01531687h45'15''1RésultatsSa course
147333FV106/08/2017AinTriMan (01) - Triathlon LLorene REYMOND0141481687h19'52''4RésultatsSa course
5571523MS116/07/2017Triathlon du Val de Gray (70) - MClement CADOT15953332h05'06''183RésultatsSa course
6023251MS109/07/2017Triathlon de Thonon-les-Bains (74) - MThéo LACHAT012711h58'23''277RésultatsSa course
1453402MV309/07/2017Triathlon du Lac du Bouchet (43) - LStephane BARREAU4419615h41'51''72RésultatsSa course
6025722MV609/07/2017Triathlon de Thonon-les-Bains (74) - MJean-pierre MASTNAK02482713h11'34''8RésultatsSa course
5558441FS409/07/2017ElsassMan (68) - Triathlon MAnne lise MANDRILLON486652112h34'14''70RésultatsSa course
2265501FS102/07/2017Triathlon de Dijon (21) - LLéna BERTHELOT MORITZ071636854h57'31''77RésultatsSa course
5500683FV118/06/2017Triathlon du Lac des Sapins (69) - MKatarzyna PARET0273856603h27'44''41RésultatsSa course
1580951MS121/05/2017Triathlon du Semnoz - Rumilly (74) - Format LThéo LACHAT052903h51'23''177RésultatsSa course
1583713MV421/05/2017Triathlon du Semnoz - Rumilly (74) - Format LHugues GIRARD02812905h50'40''4RésultatsSa course
5881863MS111/09/2016Triathlon d'Aix les Bains (73) - MPaul ETAIX097321h57'11''154RésultatsSa course
5881842MS311/09/2016Triathlon d'Aix les Bains (73) - MRomain CRIADO12977321h56'57''194RésultatsSa course
984753M65-6928/08/2016IronMan de Vichy (03) - Triathlon XXLJean-pierre MASTNAK01325154013h36'13''14RésultatsSa course
753093MSE27/08/2016Triathlon des Gorges de l'Ardèche (07) - LRomain CRIADO12953303h54'54''185RésultatsSa course
675021FS421/08/2016Triathlon du Jura Vouglans (39) - LAnne lise MANDRILLON4871151815h50'04''37RésultatsSa course
513821MV622/07/2016Triathlon de l'Alpe d'Huez (38) - LJean-pierre MASTNAK05647619h47'41''26RésultatsSa course
6027302FS410/07/2016Triathlon de Thonon-les-Bains (74) - MAnne lise MANDRILLON48111353762h43'46''64RésultatsSa course
1241302MS219/06/2016Triathlon du Lac des Sapins (69) - LRémi BOURNAND9892845h18'34''122RésultatsSa course
5505463FS419/06/2016Triathlon du Lac des Sapins (69) - MAnne lise MANDRILLON4882035963h13'27''66RésultatsSa course
1243941MV619/06/2016Triathlon du Lac des Sapins (69) - LJean-pierre MASTNAK02732848h00'49''4RésultatsSa course
201673M30-3405/06/2016IronMan de Nice (06) - Triathlon XXLRomain CRIADO1291924079h10'07''111RésultatsSa course
5861383MS108/05/2016Triathlon du Tricastin en Drome Provencale (26) - MPaul ETAIX082572h12'46''130RésultatsSa course
5861371MS308/05/2016Triathlon du Tricastin en Drome Provencale (26) - MRomain CRIADO12972572h12'18''139RésultatsSa course
5889232MJU13/09/2015Triathlon d'Aix les Bains (73) - MPaul ETAIX0146861h49'53''107RésultatsSa course
5889142MS113/09/2015Triathlon d'Aix les Bains (73) - MThéo LACHAT056861h46'53''244RésultatsSa course
6030902FS312/07/2015Triathlon de Thonon-les-Bains (74) - MAnne lise MANDRILLON4871192762h47'26''57RésultatsSa course
678771FS324/08/2014Triathlon du Jura Vouglans (39) - LAnne lise MANDRILLON4891301935h56'19''33RésultatsSa course
524743MS230/07/2014Triathlon de l'Alpe d'Huez (38) - LRomain CRIADO129128916h26'56''110RésultatsSa course
1196213MV508/06/2014Half Doussard (74) - Triathlon LJean-pierre MASTNAK02563216h09'51''21RésultatsSa course
802931MS101/09/2013IronMan de Vichy (03) - Triathlon XXLFrédéric GARCIA0186209h14'54''104RésultatsSa course
2523303M20-2523/06/2013IronMan de Nice (06) - Triathlon XXLFrédéric GARCIA07023739h39'55''100RésultatsSa course
2508382MS119/05/2013Corsica X Tri (20) - Triathlon LFrédéric GARCIA0384104h41'45''93RésultatsSa course
2673812MS130/09/2012Triathlon de Port Barcarès (66) - LFrédéric GARCIA024724h59'53''69RésultatsSa course
1937053M6015/07/2012TriStar 111 de Lyon (69) - LJean-pierre MASTNAK01201435h28'39''17RésultatsSa course
1256723MV517/06/2012Triathlon du Lac des Sapins (69) - LJean-pierre MASTNAK02672877h49'55''7RésultatsSa course
622792MV515/08/2011EmbrunMan - Triathlon XXL (05)Jean-pierre MASTNAK059680115h21'24''26RésultatsSa course
1263272MV520/06/2010Triathlon du Lac des Sapins (69) - LJean-pierre MASTNAK03373867h06'22''13RésultatsSa course
2404383MV429/06/2008Triathlon de Dijon (21) - LJean-pierre MASTNAK02102556h08'41''18RésultatsSa course

Résultats aux championnats de France

DateNomIPRClt FCltNbTempsGAClt/GA
06/06/2021Stephane BARREAU443544255h52'29''MV418RésultatsSa course
06/06/2021Alice GORRY0363704255h56'22''FS29RésultatsSa course
06/06/2021Samuel GULLY832054255h19'51''MV220RésultatsSa course
27/09/2020Alexandre PATRIN0502305h23'11''MS215RésultatsSa course
27/09/2020Stephane BARREAU441972307h27'04''MV317RésultatsSa course
25/08/2019Stephane BARREAU442113016h23'04''MV318RésultatsSa course
07/07/2018Rémi BOURNAND98726485h02'06''MS311RésultatsSa course
07/07/2018Stephane BARREAU442896485h57'09''MV320RésultatsSa course
02/07/2017Léna BERTHELOT MORITZ071576534h57'31''FS11RésultatsSa course
19/05/2013Frédéric GARCIA0353944h41'45''MS12RésultatsSa course
19/05/2012Frédéric GARCIA0405434h50'36''ELM17RésultatsSa course

Coureurs actuels du Club

Sébastien MESSIANT
IPR : 135
Catégorie de niveau : Elite 3ème classe
Valentin BARON
IPR : 104
Catégorie de niveau : Elite 3ème classe
François RAUT
IPR : 90
Catégorie de niveau : 2ème catégorie
Nathan SANHUEZA
IPR : 89
Catégorie de niveau : 2ème catégorie
Samuel GULLY
IPR : 83
Catégorie de niveau : 2ème catégorie
Bastien GOHL
IPR : 54
Catégorie de niveau : 4ème catégorie
Stephane BARREAU
IPR : 44
Catégorie de niveau : 4ème catégorie
Werner VERINGMEIER
IPR : 42
Catégorie de niveau : 4ème catégorie
Amaury LAITHIER
IPR : 41
Catégorie de niveau : 4ème catégorie
Ingrid FERON
IPR : N/A
Catégorie de niveau : Non classée
Adrien PEREZ
IPR : N/A
Catégorie de niveau : Non classé
Adrien PONS
IPR : N/A
Catégorie de niveau : Non classé
Remi BAUDRY
IPR : N/A
Catégorie de niveau : Non classé
Dimitri BIZJAN
IPR : N/A
Catégorie de niveau : Non classé
Emmanuelle BILLEREY
IPR : N/A
Catégorie de niveau : Non classée
Arturo BOLUFER
IPR : N/A
Catégorie de niveau : Non classé
Jean-marie BRETON
IPR : N/A
Catégorie de niveau : Non classé
Marius FOUBERT
IPR : N/A
Catégorie de niveau : Non classé
Yoann PERIGNON
IPR : N/A
Catégorie de niveau : Non classé
Jean-marin DE LA BRETESCHE
IPR : N/A
Catégorie de niveau : Non classé
Stephane NORDE
IPR : N/A
Catégorie de niveau : Non classé
Alice GORRY
IPR : N/A
Catégorie de niveau : Non classée
Antoine VIAL
IPR : N/A
Catégorie de niveau : Non classé
Franck LYONNET
IPR : N/A
Catégorie de niveau : Non classé
Frédéric MATHIAN
IPR : N/A
Catégorie de niveau : Non classé
Florian COURBON
IPR : N/A
Catégorie de niveau : Non classé
Antoine JUILLION
IPR : N/A
Catégorie de niveau : Non classé
Valentin DOGUET
IPR : N/A
Catégorie de niveau : Non classé
Arnaud TERRASSON
IPR : N/A
Catégorie de niveau : Non classé
Sophie VEROLLET
IPR : N/A
Catégorie de niveau : Non classée
Jean-pierre MASTNAK
IPR : N/A
Catégorie de niveau : Non classé
Agathe GIRARD
IPR : N/A
Catégorie de niveau : Non classée
Lionel MARECHAL
IPR : N/A
Catégorie de niveau : Non classé
Herve TREMOUILLES
IPR : N/A
Catégorie de niveau : Non classé
Bartolomé BONNAUD
IPR : N/A
Catégorie de niveau : Non classé
Helen SCHULTER
IPR : N/A
Catégorie de niveau : Non classée
Alban VINCENT
IPR : N/A
Catégorie de niveau : Non classé
Dario VICENTE LOPEZ
IPR : N/A
Catégorie de niveau : Non classé
Malvina RICHER
IPR : N/A
Catégorie de niveau : Non classée
Philippe KOPCIUCH
IPR : N/A
Catégorie de niveau : Non classé
Baptiste COURT
IPR : N/A
Catégorie de niveau : Non classé
Pascal GOUTTERATEL
IPR : N/A
Catégorie de niveau : Non classé
Guillaume LIOTE
IPR : N/A
Catégorie de niveau : Non classé
Augustin DERVILLE
IPR : N/A
Catégorie de niveau : Non classé
Elena PAYO
IPR : N/A
Catégorie de niveau : Non classée
Antoine LAROCHE
IPR : N/A
Catégorie de niveau : Non classé
Hugues GIRARD
IPR : N/A
Catégorie de niveau : Non classé
Jocelyn BRIARD
IPR : N/A
Catégorie de niveau : Non classé
Herve FERON
IPR : N/A
Catégorie de niveau : Non classé
Celine COLOT
IPR : N/A
Catégorie de niveau : Non classée
IPR : N/A
Catégorie de niveau : 
IPR : N/A
Catégorie de niveau : 
Pas de connexion Internet